| time (UTC) | temp F | wind direction | speed MPH | gust MPH | rain 1hr in | rain 24hr in | rain mn in | humidity % | barometer mb |
| 20260504043106 | 46 | 0 | 0.0 | 0.0 | 0.00 | 0.01 | 0.01 | 89 | 1014.3 |
| 20260504042543 | 46 | 0 | 0.0 | 0.0 | 0.00 | 0.01 | 0.01 | 89 | 1014.3 |
| 20260504042044 | 46 | 0 | 0.0 | 0.0 | 0.00 | 0.01 | 0.01 | 89 | 1014.4 |
| 20260504041550 | 46 | 0 | 0.0 | 0.0 | 0.00 | 0.01 | 0.01 | 88 | 1014.2 |
| 20260504041044 | 46 | 0 | 0.0 | 2.0 | 0.00 | 0.01 | 0.01 | 88 | 1014.1 |
| 20260504040545 | 46 | 0 | 0.0 | 2.0 | 0.00 | 0.01 | 0.01 | 88 | 1014.1 |
| 20260504040100 | 46 | 0 | 0.0 | 3.0 | 0.00 | 0.01 | 0.01 | 88 | 1014.0 |
| 20260504035544 | 46 | 0 | 0.0 | 3.0 | 0.00 | 0.01 | 0.01 | 88 | 1013.9 |
| 20260504035044 | 47 | 222 | 0.0 | 1.0 | 0.00 | 0.01 | 0.01 | 88 | 1013.9 |
| 20260504034601 | 47 | 0 | 0.0 | 3.0 | 0.00 | 0.01 | 0.01 | 87 | 1013.8 |
| 20260504034043 | 47 | 0 | 0.0 | 3.0 | 0.00 | 0.01 | 0.01 | 87 | 1013.7 |
| 20260504033544 | 47 | 254 | 0.0 | 2.0 | 0.00 | 0.01 | 0.01 | 87 | 1013.5 |
| 20260504033056 | 47 | 254 | 0.0 | 1.0 | 0.00 | 0.01 | 0.01 | 87 | 1013.6 |
| 20260504032544 | 47 | 0 | 0.0 | 1.0 | 0.00 | 0.01 | 0.01 | 87 | 1013.5 |
| 20260504032047 | 47 | 254 | 0.0 | 1.0 | 0.00 | 0.01 | 0.01 | 87 | 1013.3 |
| 20260504031604 | 48 | 0 | 0.0 | 1.0 | 0.00 | 0.01 | 0.01 | 86 | 1013.3 |
| 20260504031043 | 48 | 0 | 0.0 | 1.0 | 0.00 | 0.01 | 0.01 | 86 | 1013.2 |
| 20260504030543 | 48 | 0 | 0.0 | 1.0 | 0.00 | 0.01 | 0.01 | 85 | 1013.1 |
| 20260504030054 | 48 | 0 | 0.0 | 1.0 | 0.00 | 0.01 | 0.01 | 85 | 1013.2 |
| 20260504025543 | 48 | 0 | 0.0 | 2.0 | 0.00 | 0.01 | 0.01 | 84 | 1013.2 |
| 20260504025044 | 48 | 0 | 0.0 | 5.0 | 0.00 | 0.01 | 0.01 | 84 | 1013.1 |
| 20260504024558 | 48 | 194 | 0.0 | 5.0 | 0.00 | 0.01 | 0.01 | 83 | 1013.1 |
| 20260504024044 | 49 | 0 | 1.0 | 5.0 | 0.00 | 0.01 | 0.01 | 83 | 1012.9 |
| 20260504023544 | 49 | 0 | 0.0 | 3.0 | 0.00 | 0.01 | 0.01 | 82 | 1013.1 |
| 20260504023048 | 49 | 0 | 0.0 | 3.0 | 0.00 | 0.01 | 0.01 | 81 | 1013.1 |
| 20260504022544 | 49 | 0 | 1.0 | 3.0 | 0.00 | 0.01 | 0.01 | 80 | 1013.0 |
| 20260504022043 | 49 | 218 | 0.0 | 4.0 | 0.00 | 0.01 | 0.01 | 80 | 1013.0 |
| 20260504021554 | 50 | 0 | 1.0 | 4.0 | 0.00 | 0.01 | 0.01 | 79 | 1013.1 |
| 20260504021043 | 50 | 218 | 2.0 | 4.0 | 0.00 | 0.01 | 0.01 | 78 | 1013.0 |
| 20260504020541 | 50 | 205 | 0.0 | 3.0 | 0.00 | 0.01 | 0.01 | 79 | 1013.1 |
| 20260504020051 | 50 | 175 | 0.0 | 4.0 | 0.00 | 0.01 | 0.01 | 79 | 1013.1 |
| 20260504015542 | 51 | 0 | 0.0 | 5.0 | 0.00 | 0.01 | 0.01 | 80 | 1013.1 |
| 20260504015041 | 51 | 0 | 2.0 | 5.0 | 0.00 | 0.01 | 0.01 | 80 | 1013.1 |
| 20260504014601 | 51 | 250 | 0.0 | 4.0 | 0.00 | 0.01 | 0.01 | 80 | 1013.2 |
| 20260504014044 | 51 | 0 | 0.0 | 4.0 | 0.00 | 0.01 | 0.01 | 80 | 1013.1 |
| 20260504013540 | 52 | 0 | 0.0 | 4.0 | 0.00 | 0.01 | 0.01 | 80 | 1013.2 |
| 20260504013100 | 52 | 0 | 0.0 | 3.0 | 0.00 | 0.01 | 0.01 | 80 | 1013.2 |
| 20260504012545 | 52 | 240 | 1.0 | 3.0 | 0.00 | 0.01 | 0.01 | 79 | 1013.3 |
| 20260504012041 | 52 | 0 | 0.0 | 3.0 | 0.00 | 0.01 | 0.01 | 78 | 1013.2 |
| 20260504011551 | 52 | 348 | 1.0 | 3.0 | 0.00 | 0.01 | 0.01 | 78 | 1013.1 |
| 20260504011039 | 53 | 348 | 1.0 | 3.0 | 0.00 | 0.01 | 0.01 | 77 | 1013.2 |
| 20260504010541 | 53 | 0 | 0.0 | 3.0 | 0.00 | 0.01 | 0.01 | 77 | 1013.2 |
| 20260504010113 | 53 | 0 | 1.0 | 6.0 | 0.00 | 0.01 | 0.01 | 76 | 1013.1 |
| 20260504005542 | 53 | 299 | 2.0 | 6.0 | 0.00 | 0.01 | 0.01 | 76 | 1013.1 |
| 20260504005042 | 53 | 263 | 1.0 | 4.0 | 0.00 | 0.01 | 0.01 | 73 | 1013.1 |
| 20260504004553 | 53 | 248 | 1.0 | 4.0 | 0.00 | 0.01 | 0.01 | 73 | 1013.0 |
| 20260504004044 | 53 | 300 | 2.0 | 5.0 | 0.00 | 0.01 | 0.01 | 72 | 1012.9 |
| 20260504003546 | 54 | 194 | 2.0 | 5.0 | 0.00 | 0.01 | 0.01 | 70 | 1012.9 |
| 20260504003050 | 54 | 221 | 2.0 | 6.0 | 0.00 | 0.01 | 0.01 | 69 | 1012.9 |
| 20260504002540 | 54 | 212 | 2.0 | 6.0 | 0.00 | 0.01 | 0.01 | 68 | 1012.9 |
| 20260504002043 | 54 | 188 | 1.0 | 6.0 | 0.00 | 0.01 | 0.01 | 68 | 1013.0 |
| 20260504001600 | 55 | 228 | 2.0 | 6.0 | 0.00 | 0.01 | 0.01 | 67 | 1012.9 |
| 20260504001043 | 55 | 247 | 2.0 | 7.0 | 0.00 | 0.01 | 0.01 | 68 | 1012.9 |
| 20260504000539 | 55 | 240 | 2.0 | 7.0 | 0.00 | 0.01 | 0.01 | 67 | 1012.8 |
| 20260504000058 | 55 | 145 | 1.0 | 8.0 | 0.00 | 0.01 | 0.01 | 68 | 1012.8 |
| 20260503235547 | 55 | 238 | 2.0 | 8.0 | 0.00 | 0.01 | 0.01 | 68 | 1012.8 |
| 20260503235040 | 55 | 200 | 2.0 | 7.0 | 0.00 | 0.01 | 0.01 | 68 | 1012.8 |
| 20260503234551 | 55 | 0 | 1.0 | 5.0 | 0.00 | 0.01 | 0.01 | 74 | 1012.7 |
| 20260503234041 | 55 | 255 | 1.0 | 6.0 | 0.00 | 0.01 | 0.01 | 73 | 1012.9 |
| 20260503233541 | 55 | 202 | 2.0 | 6.0 | 0.00 | 0.01 | 0.01 | 69 | 1012.9 |
| 20260503233059 | 54 | 202 | 2.0 | 5.0 | 0.00 | 0.01 | 0.01 | 69 | 1012.9 |
| 20260503232542 | 54 | 219 | 1.0 | 5.0 | 0.00 | 0.01 | 0.01 | 70 | 1012.9 |
| 20260503232040 | 54 | 241 | 1.0 | 5.0 | 0.00 | 0.01 | 0.01 | 70 | 1012.9 |
| 20260503231550 | 55 | 191 | 1.0 | 5.0 | 0.00 | 0.01 | 0.01 | 70 | 1012.9 |
| 20260503231041 | 55 | 0 | 0.0 | 3.0 | 0.00 | 0.01 | 0.01 | 76 | 1013.1 |
| 20260503230544 | 54 | 0 | 0.0 | 3.0 | 0.00 | 0.01 | 0.01 | 71 | 1013.0 |
| 20260503230051 | 54 | 0 | 1.0 | 6.0 | 0.00 | 0.01 | 0.01 | 73 | 1012.9 |
| 20260503225546 | 53 | 0 | 0.0 | 6.0 | 0.00 | 0.01 | 0.01 | 74 | 1013.0 |
| 20260503225043 | 53 | 88 | 1.0 | 5.0 | 0.00 | 0.01 | 0.01 | 73 | 1013.2 |
| 20260503224547 | 53 | 198 | 2.0 | 6.0 | 0.00 | 0.01 | 0.01 | 74 | 1013.1 |
| 20260503224043 | 53 | 219 | 2.0 | 6.0 | 0.00 | 0.01 | 0.01 | 75 | 1013.3 |
| 20260503223543 | 52 | 221 | 0.0 | 6.0 | 0.00 | 0.01 | 0.01 | 77 | 1013.1 |
| 20260503223050 | 52 | 210 | 2.0 | 6.0 | 0.00 | 0.01 | 0.01 | 77 | 1013.2 |
| 20260503222544 | 52 | 203 | 2.0 | 8.0 | 0.00 | 0.01 | 0.01 | 78 | 1013.2 |
| 20260503221733 | 52 | 188 | 3.0 | 7.0 | 0.00 | 0.01 | 0.01 | 78 | 1013.2 |
| 20260503221041 | 52 | 209 | 1.0 | 6.0 | 0.00 | 0.01 | 0.01 | 80 | 1013.2 |
| 20260503220545 | 52 | 207 | 1.0 | 6.0 | 0.00 | 0.01 | 0.01 | 79 | 1013.2 |
| 20260503220057 | 53 | 213 | 3.0 | 6.0 | 0.00 | 0.01 | 0.01 | 79 | 1013.2 |
| 20260503215545 | 53 | 211 | 0.0 | 4.0 | 0.00 | 0.01 | 0.01 | 80 | 1013.3 |
| 20260503215040 | 53 | 0 | 1.0 | 5.0 | 0.00 | 0.01 | 0.01 | 79 | 1013.2 |
| 20260503214551 | 53 | 201 | 2.0 | 5.0 | 0.00 | 0.01 | 0.01 | 78 | 1013.3 |
| 20260503214044 | 53 | 204 | 2.0 | 5.0 | 0.00 | 0.01 | 0.01 | 77 | 1013.2 |
| 20260503213548 | 53 | 0 | 1.0 | 4.0 | 0.00 | 0.01 | 0.01 | 77 | 1013.2 |
| 20260503213050 | 53 | 225 | 2.0 | 5.0 | 0.00 | 0.01 | 0.01 | 76 | 1013.3 |
| 20260503212544 | 53 | 196 | 1.0 | 5.0 | 0.00 | 0.01 | 0.01 | 74 | 1013.2 |
| 20260503212043 | 54 | 225 | 2.0 | 5.0 | 0.00 | 0.01 | 0.01 | 74 | 1013.1 |
| 20260503211549 | 54 | 215 | 2.0 | 5.0 | 0.00 | 0.01 | 0.01 | 73 | 1013.1 |
| 20260503211043 | 53 | 180 | 1.0 | 5.0 | 0.00 | 0.01 | 0.01 | 74 | 1013.0 |
| 20260503210544 | 53 | 0 | 2.0 | 5.0 | 0.00 | 0.01 | 0.01 | 75 | 1013.1 |
| 20260503210055 | 53 | 213 | 1.0 | 4.0 | 0.00 | 0.01 | 0.01 | 75 | 1013.1 |
| 20260503205544 | 53 | 0 | 0.0 | 5.0 | 0.00 | 0.01 | 0.01 | 78 | 1013.0 |
| 20260503205043 | 53 | 182 | 1.0 | 5.0 | 0.00 | 0.01 | 0.01 | 77 | 1013.1 |
| 20260503204602 | 53 | 108 | 1.0 | 4.0 | 0.00 | 0.01 | 0.01 | 79 | 1013.1 |
| 20260503204046 | 52 | 0 | 0.0 | 4.0 | 0.00 | 0.01 | 0.01 | 80 | 1013.1 |
| 20260503203543 | 52 | 0 | 0.0 | 4.0 | 0.00 | 0.01 | 0.01 | 79 | 1013.1 |
| 20260503203059 | 52 | 205 | 0.0 | 2.0 | 0.00 | 0.01 | 0.01 | 83 | 1013.1 |
| 20260503202540 | 52 | 0 | 0.0 | 2.0 | 0.00 | 0.01 | 0.01 | 82 | 1013.2 |
| 20260503202040 | 52 | 232 | 0.0 | 5.0 | 0.00 | 0.01 | 0.01 | 80 | 1013.2 |
| 20260503201549 | 52 | 227 | 0.0 | 5.0 | 0.00 | 0.01 | 0.01 | 80 | 1013.3 |
| 20260503201045 | 52 | 0 | 0.0 | 3.0 | 0.00 | 0.01 | 0.01 | 80 | 1013.2 |
| 20260503200544 | 52 | 201 | 0.0 | 3.0 | 0.00 | 0.01 | 0.01 | 79 | 1013.1 |
| 20260503200053 | 52 | 212 | 0.0 | 2.0 | 0.00 | 0.01 | 0.01 | 79 | 1013.2 |
| 20260503195545 | 52 | 132 | 0.0 | 3.0 | 0.00 | 0.01 | 0.01 | 81 | 1013.2 |
| 20260503195044 | 52 | 0 | 0.0 | 3.0 | 0.00 | 0.01 | 0.01 | 80 | 1013.2 |
| 20260503194605 | 53 | 0 | 0.0 | 3.0 | 0.00 | 0.01 | 0.01 | 80 | 1013.3 |
| 20260503194044 | 53 | 132 | 0.0 | 3.0 | 0.00 | 0.01 | 0.01 | 82 | 1013.2 |
| 20260503193544 | 53 | 0 | 0.0 | 1.0 | 0.00 | 0.01 | 0.01 | 82 | 1013.3 |
| 20260503193051 | 52 | 0 | 0.0 | 2.0 | 0.00 | 0.01 | 0.01 | 80 | 1013.2 |
| 20260503192543 | 52 | 0 | 0.0 | 2.0 | 0.00 | 0.01 | 0.01 | 81 | 1013.2 |
| 20260503192043 | 52 | 101 | 0.0 | 3.0 | 0.00 | 0.01 | 0.01 | 82 | 1013.2 |
| 20260503191554 | 52 | 0 | 0.0 | 3.0 | 0.00 | 0.01 | 0.01 | 82 | 1013.3 |
| 20260503191043 | 52 | 101 | 0.0 | 3.0 | 0.00 | 0.01 | 0.01 | 82 | 1013.3 |
| 20260503190543 | 52 | 0 | 0.0 | 0.0 | 0.00 | 0.01 | 0.01 | 83 | 1013.3 |
| 20260503190059 | 51 | 0 | 0.0 | 0.0 | 0.00 | 0.01 | 0.01 | 82 | 1013.3 |
| 20260503185545 | 51 | 0 | 0.0 | 0.0 | 0.00 | 0.01 | 0.01 | 82 | 1013.3 |
| 20260503185043 | 51 | 0 | 0.0 | 0.0 | 0.00 | 0.01 | 0.01 | 83 | 1013.3 |
| 20260503184600 | 51 | 0 | 0.0 | 0.0 | 0.00 | 0.01 | 0.01 | 84 | 1013.2 |
| 20260503184044 | 51 | 0 | 0.0 | 2.0 | 0.00 | 0.01 | 0.01 | 87 | 1013.2 |
| 20260503183543 | 51 | 0 | 0.0 | 4.0 | 0.00 | 0.01 | 0.01 | 86 | 1013.2 |
| 20260503183105 | 51 | 0 | 0.0 | 4.0 | 0.00 | 0.01 | 0.01 | 87 | 1013.2 |
| 20260503182543 | 51 | 223 | 0.0 | 3.0 | 0.00 | 0.01 | 0.01 | 89 | 1013.1 |
| 20260503182043 | 51 | 0 | 1.0 | 3.0 | 0.00 | 0.01 | 0.01 | 90 | 1013.1 |
| 20260503181552 | 51 | 0 | 0.0 | 3.0 | 0.00 | 0.01 | 0.01 | 90 | 1013.1 |
| 20260503181044 | 50 | 176 | 1.0 | 5.0 | 0.00 | 0.01 | 0.01 | 91 | 1013.1 |
| 20260503180543 | 50 | 280 | 1.0 | 5.0 | 0.00 | 0.01 | 0.01 | 92 | 1013.1 |
| 20260503180105 | 49 | 0 | 1.0 | 3.0 | 0.00 | 0.01 | 0.01 | 93 | 1013.1 |
| 20260503175544 | 49 | 195 | 1.0 | 6.0 | 0.00 | 0.01 | 0.01 | 95 | 1013.1 |
| 20260503175045 | 49 | 227 | 1.0 | 6.0 | 0.00 | 0.01 | 0.01 | 95 | 1013.2 |
| 20260503174551 | 49 | 111 | 1.0 | 4.0 | 0.00 | 0.01 | 0.01 | 96 | 1013.1 |
| 20260503174044 | 49 | 209 | 1.0 | 3.0 | 0.00 | 0.01 | 0.01 | 96 | 1013.1 |
| 20260503173544 | 48 | 143 | 0.0 | 2.0 | 0.00 | 0.01 | 0.01 | 96 | 1013.1 |
| 20260503173144 | 49 | 0 | 0.0 | 3.0 | 0.00 | 0.01 | 0.01 | 96 | 1013.2 |
| 20260503172544 | 48 | 0 | 0.0 | 3.0 | 0.00 | 0.01 | 0.01 | 96 | 1013.1 |
| 20260503172044 | 48 | 263 | 0.0 | 1.0 | 0.00 | 0.01 | 0.01 | 96 | 1013.2 |
| 20260503171552 | 48 | 0 | 0.0 | 2.0 | 0.01 | 0.01 | 0.01 | 97 | 1013.2 |
| 20260503171045 | 48 | 263 | 0.0 | 2.0 | 0.01 | 0.01 | 0.01 | 97 | 1013.2 |
| 20260503170544 | 48 | 0 | 0.0 | 2.0 | 0.01 | 0.01 | 0.01 | 96 | 1013.2 |
| 20260503150544 | 47 | 0 | 1.0 | 2.0 | 0.00 | 0.00 | 0.00 | 97 | 1012.3 |
| 20260503131043 | 45 | 0 | 0.0 | 1.0 | 0.00 | 0.00 | 0.00 | 96 | 1011.3 |
| 20260503130554 | 45 | 0 | 0.0 | 2.0 | 0.00 | 0.00 | 0.00 | 96 | 1011.2 |
| 20260503130104 | 45 | 0 | 0.0 | 4.0 | 0.00 | 0.00 | 0.00 | 96 | 1011.1 |
| 20260503110544 | 46 | 0 | 0.0 | 2.0 | 0.00 | 0.00 | 0.00 | 96 | 1011.2 |
| 20260503100244 | 46 | 0 | 0.0 | 3.0 | 0.00 | 0.00 | 0.00 | 96 | 1011.1 |
| 20260503081556 | 46 | 310 | 1.0 | 4.0 | 0.00 | 0.00 | 0.00 | 96 | 1012.0 |
| 20260503081044 | 46 | 310 | 2.0 | 5.0 | 0.00 | 0.00 | 0.00 | 96 | 1011.9 |
| 20260503080544 | 46 | 309 | 2.0 | 5.0 | 0.00 | 0.00 | 0.00 | 96 | 1011.8 |
| 20260503072544 | 46 | 314 | 2.0 | 4.0 | 0.00 | 0.00 | 0.00 | 96 | 1012.0 |
| 20260503072044 | 46 | 310 | 2.0 | 5.0 | 0.00 | 0.00 | 0.00 | 96 | 1011.9 |
| 20260503071557 | 46 | 317 | 2.0 | 5.0 | 0.00 | 0.00 | 0.00 | 96 | 1012.0 |
| 20260503071044 | 46 | 317 | 2.0 | 5.0 | 0.00 | 0.00 | 0.00 | 96 | 1011.9 |
| 20260503070544 | 46 | 304 | 3.0 | 5.0 | 0.00 | 0.00 | 0.00 | 96 | 1012.0 |
| 20260503055044 | 46 | 317 | 3.0 | 5.0 | 0.00 | 0.00 | 0.00 | 96 | 1012.2 |
| 20260503054550 | 46 | 315 | 3.0 | 5.0 | 0.00 | 0.00 | 0.00 | 96 | 1012.2 |
| 20260503054044 | 46 | 313 | 3.0 | 8.0 | 0.00 | 0.00 | 0.00 | 96 | 1012.3 |
| 20260503053544 | 46 | 313 | 2.0 | 8.0 | 0.00 | 0.00 | 0.00 | 96 | 1012.3 |
| 20260503053053 | 46 | 313 | 4.0 | 8.0 | 0.00 | 0.00 | 0.00 | 95 | 1012.3 |
| 20260503052544 | 46 | 319 | 4.0 | 7.0 | 0.00 | 0.00 | 0.00 | 95 | 1012.2 |
| 20260503052044 | 46 | 323 | 3.0 | 7.0 | 0.00 | 0.00 | 0.00 | 96 | 1012.4 |
| 20260503051551 | 46 | 297 | 4.0 | 9.0 | 0.00 | 0.00 | 0.00 | 95 | 1012.5 |
| 20260503051043 | 46 | 303 | 4.0 | 9.0 | 0.00 | 0.00 | 0.00 | 96 | 1012.4 |
| 20260503050544 | 46 | 308 | 4.0 | 9.0 | 0.00 | 0.00 | 0.00 | 96 | 1012.4 |
| 20260503050054 | 46 | 317 | 4.0 | 8.0 | 0.00 | 0.00 | 0.00 | 96 | 1012.5 |
| 20260503045545 | 46 | 307 | 3.0 | 9.0 | 0.00 | 0.00 | 0.00 | 96 | 1012.4 |
| 20260503045045 | 46 | 301 | 4.0 | 9.0 | 0.00 | 0.00 | 0.00 | 96 | 1012.3 |
| 20260503044554 | 46 | 306 | 3.0 | 7.0 | 0.00 | 0.00 | 0.00 | 96 | 1012.3 |
| 20260503044047 | 46 | 315 | 3.0 | 9.0 | 0.00 | 0.00 | 0.00 | 96 | 1012.3 |
| 20260503043544 | 46 | 306 | 4.0 | 9.0 | 0.00 | 0.00 | 0.00 | 95 | 1012.2 |